Powrót do katalogu

SL-8 DEB

AktywnyLEO
NORAD 21255·DEBRIS·🇷🇺 Russia

Wystrzelony Dec 10, 1990 z Plesetsk Cosmodrome

Loading…

Następne Przeloty (najbliższe 24 godziny)

TLE

ŚwieżeSource: Space-Track

Epoka: Sep 14, 2026, 08:45 UTC

1 21255U 90111C   26257.36511373  .00000987  00000-0  24941-3 0  9995
2 21255  74.0332 228.9096 0012867 345.1020 165.2764 14.52308440878545

Śledź SL-8 DEB w czasie rzeczywistym z AllMySat

Download on the App Store